Home > Products > Valid Products > MTR

000
SAUS44 KMEG 241154
MTRTUP
METAR KTUP 241153Z 01003KT 10SM FEW110 08/07 A3012 RMK AO2 SLP199
T00780067 10117 20078 53003





000
SAUS44 KMEG 241054
MTRTUP
METAR KTUP 241053Z 01004KT 10SM CLR 08/07 A3011 RMK AO2 SLP197
T00830067





000
SAUS44 KMEG 241054
MTRTUP
METAR KTUP 241053Z 01004KT 10SM CLR 08/07 A3011 RMK AO2 SLP197
T00830067





000
SAUS44 KMEG 240954
MTRTUP
METAR KTUP 240953Z AUTO 00000KT 10SM CLR 10/08 A3011 RMK AO2 SLP195
T01000078 PWINO





000
SAUS44 KMEG 240854
MTRTUP
METAR KTUP 240853Z AUTO 35004KT 10SM CLR 11/08 A3011 RMK AO2 SLP195
T01060083 50007 PWINO





000
SAUS44 KMEG 240754
MTRTUP
METAR KTUP 240753Z AUTO 00000KT 10SM CLR 12/08 A3011 RMK AO2 SLP196
T01170083 PWINO





000
SAUS44 KMEG 240654
MTRTUP
METAR KTUP 240653Z AUTO 01005KT 10SM CLR 11/09 A3010 RMK AO2 SLP190
T01110089 PWINO





000
SAUS44 KMEG 240554
MTRTUP
METAR KTUP 240553Z AUTO 00000KT 10SM CLR 11/08 A3009 RMK AO2 SLP188
T01110083 10150 20106 401890039 56014 PWINO





000
SAUS44 KMEG 240454
MTRTUP
METAR KTUP 240453Z AUTO 04005KT 10SM CLR 12/08 A3010 RMK AO2 SLP190
T01170083 PWINO





000
SAUS44 KMEG 240454
MTRTUP
METAR KTUP 240453Z AUTO 04005KT 10SM CLR 12/08 A3010 RMK AO2 SLP190
T01170083 PWINO





000
SAUS44 KMEG 240354
MTRTUP
METAR KTUP 240353Z AUTO 02003KT 10SM FEW120 13/09 A3012 RMK AO2
SLP198 T01280089 PWINO





000
SAUS44 KMEG 240354
MTRTUP
METAR KTUP 240353Z AUTO 02003KT 10SM FEW120 13/09 A3012 RMK AO2
SLP198 T01280089 PWINO





000
SAUS44 KMEG 240254
MTRTUP
METAR KTUP 240253Z 00000KT 10SM CLR 14/09 A3014 RMK AO2 SLP203
T01390089 53011





000
SAUS44 KMEG 240254
MTRTUP
METAR KTUP 240253Z 00000KT 10SM CLR 14/09 A3014 RMK AO2 SLP203
T01390089 53011





000
SAUS44 KMEG 240154
MTRTUP
METAR KTUP 240153Z 00000KT 10SM CLR 14/09 A3012 RMK AO2 SLP199
T01440089





000
SAUS44 KMEG 240154
MTRTUP
METAR KTUP 240153Z 00000KT 10SM CLR 14/09 A3012 RMK AO2 SLP199
T01440089





000
SAUS44 KMEG 240054
MTRTUP
METAR KTUP 240053Z 04008KT 10SM CLR 13/10 A3009 RMK AO2 SLP187
T01330100





000
SAUS44 KMEG 232354
MTRTUP
METAR KTUP 232353Z 36004KT 10SM CLR 15/09 A3010 RMK AO2 SLP192
T01500094 10189 20150 50000





000
SAUS44 KMEG 232254
MTRTUP
METAR KTUP 232253Z AUTO 00000KT 10SM CLR 16/10 A3010 RMK AO2 SLP193
T01610100 PWINO





000
SAUS44 KMEG 232154
MTRTUP
METAR KTUP 232153Z AUTO 00000KT 10SM CLR 17/09 A3010 RMK AO2 SLP192
T01720089 PWINO





000
SAUS44 KMEG 232154
MTRTUP
METAR KTUP 232153Z AUTO 00000KT 10SM CLR 17/09 A3010 RMK AO2 SLP192
T01720089 PWINO





000
SAUS44 KMEG 232054
MTRTUP
METAR KTUP 232053Z AUTO 00000KT 10SM CLR 18/06 A3010 RMK AO2 SLP192
T01830056 56016 PWINO





000
SAUS44 KMEG 231954
MTRTUP
METAR KTUP 231953Z AUTO VRB03KT 10SM CLR 18/07 A3010 RMK AO2 SLP193
T01830067 PWINO





000
SAUS44 KMEG 231954
MTRTUP
METAR KTUP 231953Z AUTO VRB03KT 10SM CLR 18/07 A3010 RMK AO2 SLP193
T01830067 PWINO





000
SAUS44 KMEG 231854
MTRTUP
METAR KTUP 231853Z VRB03KT 10SM CLR 19/07 A3012 RMK AO2 SLP198
T01890067





000
SAUS44 KMEG 231854
MTRTUP
METAR KTUP 231853Z VRB03KT 10SM CLR 19/07 A3012 RMK AO2 SLP198
T01890067





000
SAUS44 KMEG 231754
MTRTUP
METAR KTUP 231753Z VRB04KT 10SM CLR 18/07 A3015 RMK AO2 SLP208
T01780067 10183 20044 58016





000
SAUS44 KMEG 231754
MTRTUP
METAR KTUP 231753Z VRB04KT 10SM CLR 18/07 A3015 RMK AO2 SLP208
T01780067 10183 20044 58016





000
SAUS44 KMEG 231654
MTRTUP
METAR KTUP 231653Z 00000KT 10SM CLR 16/07 A3018 RMK AO2 SLP219
T01610067





000
SAUS44 KMEG 231654
MTRTUP
METAR KTUP 231653Z 00000KT 10SM CLR 16/07 A3018 RMK AO2 SLP219
T01610067





000
SAUS44 KMEG 231554
MTRTUP
METAR KTUP 231553Z 12003KT 10SM CLR 14/07 A3019 RMK AO2 SLP222
T01390067





000
SAUS44 KMEG 231454
MTRTUP
METAR KTUP 231453Z 07003KT 10SM CLR 11/07 A3020 RMK AO2 SLP225
T01110067 50011





000
SAUS44 KMEG 231454
MTRTUP
METAR KTUP 231453Z 07003KT 10SM CLR 11/07 A3020 RMK AO2 SLP225
T01110067 50011





000
SAUS44 KMEG 231354
MTRTUP
METAR KTUP 231353Z 05004KT 10SM CLR 09/06 A3020 RMK AO2 SLP226
T00940061





000
SAUS44 KMEG 231254
MTRTUP
METAR KTUP 231253Z 04006KT 10SM CLR 07/05 A3017 RMK AO2 SLP217
T00670050





000
SAUS44 KMEG 231154
MTRTUP
METAR KTUP 231153Z 03007KT 10SM CLR 04/03 A3016 RMK AO2 SLP213
T00440028 10089 20039 53003





000
SAUS44 KMEG 231054
MTRTUP
METAR KTUP 231053Z 04005KT 10SM CLR 04/03 A3016 RMK AO2 SLP213
T00440028





000
SAUS44 KMEG 230954
MTRTUP
METAR KTUP 230953Z AUTO 05005KT 10SM CLR 06/04 A3016 RMK AO2 SLP209
T00560039 PWINO





000
SAUS44 KMEG 230954
MTRTUP
METAR KTUP 230953Z AUTO 05005KT 10SM CLR 06/04 A3016 RMK AO2 SLP209
T00560039 PWINO





000
SAUS44 KMEG 230854
MTRTUP
METAR KTUP 230853Z AUTO 03006KT 10SM CLR 05/04 A3016 RMK AO2 SLP209
T00500039 50003 PWINO





000
SAUS44 KMEG 230754
MTRTUP
METAR KTUP 230753Z AUTO 04004KT 10SM CLR 06/04 A3017 RMK AO2 SLP213
T00610044 PWINO





000
SAUS44 KMEG 230654
MTRTUP
METAR KTUP 230653Z AUTO 01003KT 10SM CLR 07/05 A3016 RMK AO2 SLP212
T00670050 PWINO





000
SAUS44 KMEG 230554
MTRTUP
METAR KTUP 230553Z AUTO 03005KT 10SM CLR 07/05 A3015 RMK AO2 SLP207
T00670050 10144 20067 402060067 58010 PWINO





000
SAUS44 KMEG 230554
MTRTUP
METAR KTUP 230553Z AUTO 03005KT 10SM CLR 07/05 A3015 RMK AO2 SLP207
T00670050 10144 20067 402060067 58010 PWINO





000
SAUS44 KMEG 230454
MTRTUP
METAR KTUP 230453Z AUTO 05004KT 10SM CLR 08/06 A3015 RMK AO2 SLP209
T00780056 PWINO





000
SAUS44 KMEG 230454
MTRTUP
METAR KTUP 230453Z AUTO 05004KT 10SM CLR 08/06 A3015 RMK AO2 SLP209
T00780056 PWINO





000
SAUS44 KMEG 230354
MTRTUP
METAR KTUP 230353Z AUTO 04005KT 10SM CLR 08/06 A3017 RMK AO2 SLP216
T00830056 PWINO





000
SAUS44 KMEG 230354
MTRTUP
METAR KTUP 230353Z AUTO 04005KT 10SM CLR 08/06 A3017 RMK AO2 SLP216
T00830056 PWINO





000
SAUS44 KMEG 230254
MTRTUP
METAR KTUP 230253Z 03006KT 10SM CLR 09/06 A3018 RMK AO2 SLP218
T00940061 50010





000
SAUS44 KMEG 230154
MTRTUP
METAR KTUP 230153Z 00000KT 10SM CLR 11/07 A3018 RMK AO2 SLP218
T01110072





000
SAUS44 KMEG 230154
MTRTUP
METAR KTUP 230153Z 00000KT 10SM CLR 11/07 A3018 RMK AO2 SLP218
T01110072





000
SAUS44 KMEG 230054
MTRTUP
METAR KTUP 230053Z 36003KT 10SM CLR 13/07 A3016 RMK AO2 SLP213
T01280072





000
SAUS44 KMEG 230054
MTRTUP
METAR KTUP 230053Z 36003KT 10SM CLR 13/07 A3016 RMK AO2 SLP213
T01280072





000
SAUS44 KMEG 222354
MTRTUP
METAR KTUP 222353Z 02004KT 10SM CLR 13/07 A3015 RMK AO2 SLP207
T01330067 10206 20133 55000





000
SAUS44 KMEG 222354
MTRTUP
METAR KTUP 222353Z 02004KT 10SM CLR 13/07 A3015 RMK AO2 SLP207
T01330067 10206 20133 55000





000
SAUS44 KMEG 222254
MTRTUP
METAR KTUP 222253Z AUTO 06006KT 10SM CLR 17/06 A3015 RMK AO2 SLP207
T01720056 PWINO





000
SAUS44 KMEG 222254
MTRTUP
METAR KTUP 222253Z AUTO 06006KT 10SM CLR 17/06 A3015 RMK AO2 SLP207
T01720056 PWINO





000
SAUS44 KMEG 222154
MTRTUP
METAR KTUP 222153Z AUTO 04010KT 10SM CLR 19/06 A3014 RMK AO2 SLP205
T01940056 PWINO





000
SAUS44 KMEG 222054
MTRTUP
METAR KTUP 222053Z AUTO 05010KT 10SM CLR 20/06 A3015 RMK AO2 SLP207
T02000061 56015 PWINO





000
SAUS44 KMEG 221954
MTRTUP
METAR KTUP 221953Z AUTO 08011KT 10SM CLR 19/06 A3015 RMK AO2 SLP208
T01940056 PWINO





000
SAUS44 KMEG 221854
MTRTUP
METAR KTUP 221853Z VRB06KT 10SM CLR 19/06 A3017 RMK AO2 SLP214
T01890061





000
SAUS44 KMEG 221754
MTRTUP
METAR KTUP 221753Z 07007KT 10SM CLR 18/06 A3019 RMK AO2 SLP222
T01780056 10183 20083 58012





000
SAUS44 KMEG 221754
MTRTUP
METAR KTUP 221753Z 07007KT 10SM CLR 18/06 A3019 RMK AO2 SLP222
T01780056 10183 20083 58012





000
SAUS44 KMEG 221654
MTRTUP
METAR KTUP 221653Z 05011KT 10SM CLR 17/06 A3022 RMK AO2 SLP231
T01720061





000
SAUS44 KMEG 221654
MTRTUP
METAR KTUP 221653Z 05011KT 10SM CLR 17/06 A3022 RMK AO2 SLP231
T01720061





000
SAUS44 KMEG 221554
MTRTUP
METAR KTUP 221553Z 09011KT 10SM CLR 16/05 A3023 RMK AO2 SLP236
T01610050





000
SAUS44 KMEG 221554
MTRTUP
METAR KTUP 221553Z 09011KT 10SM CLR 16/05 A3023 RMK AO2 SLP236
T01610050





000
SAUS44 KMEG 221454
MTRTUP
METAR KTUP 221453Z 09008KT 10SM CLR 14/06 A3023 RMK AO2 SLP234
T01440056 53017





000
SAUS44 KMEG 221354
MTRTUP
METAR KTUP 221353Z 06010KT 10SM CLR 12/07 A3021 RMK AO2 SLP227
T01170072





000
SAUS44 KMEG 221254
MTRTUP
METAR KTUP 221253Z 06007KT 10SM CLR 09/07 A3019 RMK AO2 SLP220
T00940072





000
SAUS44 KMEG 221154
MTRTUP
METAR KTUP 221153Z 04009KT 10SM CLR 08/07 A3018 RMK AO2 SLP217
T00830067 10122 20072 53019





000
SAUS44 KMEG 221054
MTRTUP
METAR KTUP 221053Z 04005KT 10SM CLR 08/06 A3016 RMK AO2 SLP210
T00780061





000
SAUS44 KMEG 220954
MTRTUP
METAR KTUP 220953Z AUTO 04006KT 10SM CLR 09/07 A3013 RMK AO2 SLP202
T00890072 PWINO





000
SAUS44 KMEG 220954
MTRTUP
METAR KTUP 220953Z AUTO 04006KT 10SM CLR 09/07 A3013 RMK AO2 SLP202
T00890072 PWINO





000
SAUS44 KMEG 220854
MTRTUP
METAR KTUP 220853Z AUTO 05006KT 10SM CLR 09/07 A3012 RMK AO2 SLP196
T00890072 51011 PWINO





000
SAUS44 KMEG 220754
MTRTUP
METAR KTUP 220753Z AUTO 04003KT 10SM CLR 10/08 A3011 RMK AO2 SLP194
T01000078 PWINO





000
SAUS44 KMEG 220654
MTRTUP
METAR KTUP 220653Z AUTO 00000KT 10SM CLR 11/08 A3010 RMK AO2 SLP191
T01110083 PWINO





000
SAUS44 KMEG 220554
MTRTUP
METAR KTUP 220553Z AUTO 04006KT 10SM CLR 09/07 A3009 RMK AO2 SLP185
T00940072 10172 20094 402500094 51003 PWINO





000
SAUS44 KMEG 220554
MTRTUP
METAR KTUP 220553Z AUTO 04006KT 10SM CLR 09/07 A3009 RMK AO2 SLP185
T00940072 10172 20094 402500094 51003 PWINO





000
SAUS44 KMEG 220454
MTRTUP
METAR KTUP 220453Z AUTO 03008KT 10SM CLR 11/09 A3008 RMK AO2 SLP184
T01110089 PWINO





000
SAUS44 KMEG 220454
MTRTUP
METAR KTUP 220453Z AUTO 03008KT 10SM CLR 11/09 A3008 RMK AO2 SLP184
T01110089 PWINO





000
SAUS44 KMEG 220354
MTRTUP
METAR KTUP 220353Z AUTO 01003KT 10SM CLR 12/09 A3009 RMK AO2 SLP186
T01220094 PWINO





000
SAUS44 KMEG 220254
MTRTUP
METAR KTUP 220253Z AUTO 04004KT 10SM CLR 12/09 A3008 RMK AO2 SLP183
T01220094 51013 PWINO





000
SAUS44 KMEG 220254
MTRTUP
METAR KTUP 220253Z AUTO 04004KT 10SM CLR 12/09 A3008 RMK AO2 SLP183
T01220094 51013 PWINO





000
SAUS44 KMEG 220154
MTRTUP
METAR KTUP 220153Z AUTO 00000KT 10SM CLR 14/10 A3007 RMK AO2 SLP180
T01440100 PWINO





000
SAUS44 KMEG 220154
MTRTUP
METAR KTUP 220153Z AUTO 00000KT 10SM CLR 14/10 A3007 RMK AO2 SLP180
T01440100 PWINO





000
SAUS44 KMEG 220054
MTRTUP
METAR KTUP 220053Z AUTO 00000KT 10SM CLR 16/11 A3005 RMK AO2 SLP175
T01610106 PWINO





000
SAUS44 KMEG 212354
MTRTUP
METAR KTUP 212353Z AUTO 03003KT 10SM CLR 18/09 A3004 RMK AO2 SLP169
T01780094 10250 20172 53004 PWINO





000
SAUS44 KMEG 212255 COR
MTRTUP
METAR KTUP 212253Z AUTO 02005KT 10SM CLR 21/09 A3002 RMK AO2 SLP164
T02060089 PWINO





000
SAUS44 KMEG 212255 COR
MTRTUP
METAR KTUP 212253Z AUTO 02005KT 10SM CLR 21/09 A3002 RMK AO2 SLP164
T02060089 PWINO





000
SAUS44 KMEG 212154
MTRTUP
METAR KTUP 212153Z AUTO 02009KT 10SM CLR 23/08 A3002 RMK AO2 SLP163
T02330078 PWINO





000
SAUS44 KMEG 212154
MTRTUP
METAR KTUP 212153Z AUTO 02009KT 10SM CLR 23/08 A3002 RMK AO2 SLP163
T02330078 PWINO





000
SAUS44 KMEG 212054
MTRTUP
METAR KTUP 212053Z AUTO 03011KT 10SM CLR 24/08 A3002 RMK AO2 SLP164
T02440078 55011 PWINO





000
SAUS44 KMEG 211954
MTRTUP
METAR KTUP 211953Z AUTO 35008KT 10SM CLR 24/08 A3002 RMK AO2 SLP164
T02440083 PWINO





000
SAUS44 KMEG 211854
MTRTUP
METAR KTUP 211853Z 02010KT 10SM CLR 24/10 A3003 RMK AO2 SLP167
T02440100 $





000
SAUS44 KMEG 211754
MTRTUP
METAR KTUP 211753Z 04007KT 10SM CLR 24/11 A3006 RMK AO2 SLP175
T02390111 10239 20094 58010 $





000
SAUS44 KMEG 211654
MTRTUP
METAR KTUP 211653Z 03005KT 10SM CLR 22/12 A3008 RMK AO2 SLP182
T02170122 $





000
SAUS44 KMEG 211654
MTRTUP
METAR KTUP 211653Z 03005KT 10SM CLR 22/12 A3008 RMK AO2 SLP182
T02170122 $





000
SAUS44 KMEG 211554
MTRTUP
METAR KTUP 211553Z 06003KT 10SM CLR 19/13 A3008 RMK AO2 SLP185
T01940133 $





000
SAUS44 KMEG 211554
MTRTUP
METAR KTUP 211553Z 06003KT 10SM CLR 19/13 A3008 RMK AO2 SLP185
T01940133 $





000
SAUS44 KMEG 211454
MTRTUP
METAR KTUP 211453Z 06005KT 10SM CLR 17/13 A3009 RMK AO2 SLP187
T01720128 51012 $





000
SAUS44 KMEG 211354
MTRTUP
METAR KTUP 211353Z 00000KT 10SM CLR 15/12 A3009 RMK AO2 SLP186
T01500122 $





000
SAUS44 KMEG 211254
MTRTUP
METAR KTUP 211253Z 00000KT 10SM CLR 11/09 A3007 RMK AO2 SLP179
T01110094 $





    US Dept of Commerce
    National Oceanic and Atmospheric Administration
    National Weather Service
    1325 East West Highway
    Silver Spring, MD 20910
    Page Author: NWS Internet Services Team
Disclaimer
Information Quality
Credits
Glossary
Privacy Policy
Freedom of Information Act (FOIA)
About Us
Career Opportunities